Location: Wharf Road Observatory
(44.7802°N, 65.6070°W)
Time: 12:32:19
(UTC-04:00)

CAS-4A - Visible Passes

Search period start: 28 January 2023 00:00
Search period end: 07 February 2023 00:00
Orbit: 514 x 531 km, 43.0° (Epoch: 28 January)

Date Brightness Start Highest point End Pass type
(mag) Time Alt. Az. Time Alt. Az. Time Alt. Az.
28 Jan ? 05:43:56 10° S 05:46:12 15° SE 05:48:28 10° ESE visible
29 Jan ? 05:29:30 13° S 05:31:16 17° SSE 05:33:54 10° ESE visible
29 Jan ? 07:06:38 10° WSW 07:10:33 48° SSE 07:14:28 10° E visible
30 Jan ? 05:15:50 19° SSE 05:16:20 19° SSE 05:19:15 10° ESE visible
30 Jan ? 06:51:43 10° WSW 06:55:39 52° SSE 06:59:37 10° E visible
31 Jan ? 05:02:00 21° SE 05:02:00 21° SE 05:04:32 10° E visible
31 Jan ? 06:37:04 12° WSW 06:40:46 56° SSE 06:44:44 10° E visible
01 Feb ? 04:48:01 19° ESE 04:48:01 19° ESE 04:49:44 10° E visible
01 Feb ? 06:23:05 19° WSW 06:25:50 59° S 06:29:50 10° E visible
02 Feb ? 04:33:56 15° ESE 04:33:56 15° ESE 04:34:54 10° E visible
02 Feb ? 06:09:00 29° WSW 06:10:55 63° S 06:14:55 10° E visible
03 Feb ? 04:19:46 11° E 04:19:46 11° E 04:20:01 10° E visible
03 Feb ? 05:54:49 43° WSW 05:55:57 65° S 05:59:58 10° E visible
04 Feb ? 05:40:35 62° SW 05:40:59 67° S 05:45:00 10° E visible
05 Feb ? 05:26:17 65° SE 05:26:17 65° SE 05:30:01 10° E visible
05 Feb ? 07:01:45 10° W 07:05:40 51° SSW 07:09:36 10° ESE visible
06 Feb ? 05:11:58 47° ESE 05:11:58 47° ESE 05:15:00 10° E visible
06 Feb ? 06:47:01 12° W 06:50:38 47° SSW 06:54:32 10° ESE visible
